Regional Weather Roundup
Issued by NWS

Home | Current Version | Previous Version | Text Only | Print | Product List | Glossary On
Versions: 1 2 3 4 5 6 7 8 9 10 11 12 13 14 15 16 17 18 19 20 21 22 23 24 25 26 27
000
ASUS46 KPQR 010110
RWROR

OREGON REGIONAL WEATHER ROUNDUP
NATIONAL WEATHER SERVICE PORTLAND OR
600 PM PDT SAT APR 30 2016

NOTE: "FAIR" INDICATES FEW OR NO CLOUDS BELOW 12,000 FEET WITH
NO SIGNIFICANT WEATHER AND/OR OBSTRUCTIONS TO VISIBILITY.

ORZ001>013-010200-
NORTHWEST OREGON


CITY           SKY/WX    TMP DP  RH WIND       PRES   REMARKS
ASTORIA        MOSUNNY   60  49  66 NW13      30.30F HAZE
NEWPORT        SUNNY     55  50  82 N18       30.29F
PORTLAND       PTSUNNY   69  44  40 NW14      30.23F
VANCOUVER WA   MOSUNNY   69  43  38 NW8G17    30.23F
SCAPPOOSE      PTSUNNY   69  42  37 NW10      30.23F
HILLSBORO      PTSUNNY   70  44  39 N8        30.23F
AURORA         MOSUNNY   68  44  42 NE10      30.24F
MCMINNVILLE    MOSUNNY   70  48  45 NE9       30.24F
SALEM          PTSUNNY   67  47  48 NE10      30.22F
CORVALLIS        N/A     66  46  48 N9        30.25S
EUGENE         PTSUNNY   63  47  55 N14       30.23F
$$

ORZ021-028-010200-
SOUTHWEST OREGON


CITY           SKY/WX    TMP DP  RH WIND       PRES   REMARKS
NORTH BEND     SUNNY     57  48  72 N16G29    30.24F
BROOKINGS      SUNNY     65  47  52 NW13G21   30.05F
ROSEBURG       SUNNY     67  43  41 N9        30.17F
SEXTON SUMMIT  SUNNY     51  43  74 MISG      30.15S
MEDFORD        SUNNY     70  42  36 NW9       30.09F
$$

ORZ014>016-041-010200-
COLUMBIA GORGE


CITY           SKY/WX    TMP DP  RH WIND       PRES   REMARKS
TROUTDALE      MOSUNNY   70  46  42 VRB3      30.22F
THE DALLES     SUNNY     73  44  35 NW13      30.17S
$$

ORZ029>031-041-044-049-050-061>064-502-503-505>511-010200-
EASTERN OREGON


CITY           SKY/WX    TMP DP  RH WIND       PRES   REMARKS
REDMOND        MOSUNNY   61  32  33 N15       30.19R
BEND           PTSUNNY   59  30  33 N9G17     30.19R
PRINEVILLE     MOSUNNY   61  34  36 N9G17     30.19S
KLAMATH FALLS  MOSUNNY   62  30  29 NE13G23   30.11S
LAKEVIEW       SUNNY     57  30  35 N17G24    30.14S
HERMISTON      SUNNY     70  44  39 NE15      30.17S
PENDLETON      MOSUNNY   64  41  42 NE10      30.19S
JOHN DAY       PTSUNNY   55  33  42 N9        30.19S
MEACHAM        NOT AVBL
LA GRANDE      PTSUNNY   61  34  36 N14       30.18S
BAKER CITY     SUNNY     55  36  48 NW20G28   30.17S
BURNS          SUNNY     58  30  34 NW21G26   30.13S
ROME             N/A     62  29  28 N17G24    30.06R
ONTARIO        PTSUNNY   63  38  39 NW26G33   30.08S
$$




USA.gov is the U.S. government's official web portal to all federal, state and local government web resources and services.